Location: Mouss�
(47.9236°N, 1.2701°W)
Time: 00:25:34
(UTC+00:00)

FALCON 9 DEB - Pass Details

Date: 03 March 2021
Orbit: 367 x 387 km, 53.0° (Epoch: 14 April)

Event Time Altitude Azimuth Distance (km) Brightness Sun altitude
Rises 19:28:43 0° 291° (WNW) 2,292 8.4 -16.8°
Reaches altitude 10° 19:30:54 10° 301° (WNW) 1,433 6.8 -17.2°
Maximum altitude 19:33:52 33° 8° (N) 678 4.1 -17.7°
Enters shadow 19:34:22 31° 29° (NNE) 709 4.0 -17.7°
